Regional Weather Roundup
Issued by NWS Newport/Morehead, NC

Current Version | Previous Version | Text Only | Print | Product List | Glossary On
Versions: 1 2 3 4 5 6 7 8 9 10 11 12 13 14 15 16 17 18 19 20 21 22 23 24 25 26 27 28 29 30 31 32 33 34 35 36 37 38 39 40 41 42 43 44 45 46 47 48 49 50
000
ASUS42 KMHX 031712
RWRMHX
WEATHER ROUNDUP FOR EASTERN NORTH CAROLINA
NATIONAL WEATHER SERVICE NEWPORT/MOREHEAD CITY NC
1200 PM EST TUE MAR 03 2015

NOTE: "FAIR" INDICATES FEW OR NO CLOUDS BELOW 12,000 FEET
WITH NO SIGNIFICANT WEATHER AND/OR OBSTRUCTIONS TO VISIBILITY

NCZ015>017-031-032-045>047-102-103-031800-
NORTH COAST

CITY           SKY/WX    TMP DP  RH WIND       PRES   REMARKS
EDENTON        CLOUDY    41  32  70 NE6       30.38F
ELIZABETH CITY CLOUDY    41  30  65 NE7       30.38F
KITTY HAWK     CLOUDY    39  32  76 N6        30.37S
MANTEO         CLOUDY    41  32  70 N12       30.39S

$$

NCZ045>047-081-094-103-104-031800-
CENTRAL COAST

CITY           SKY/WX    TMP DP  RH WIND       PRES   REMARKS
FRISCO         CLOUDY    44  37  76 NE8       30.36F
SWANQUARTER      N/A     45 N/A N/A NE6       30.33S

$$

NCZ095-097-098-100-101-031800-
SOUTHERN COAST

CITY           SKY/WX    TMP DP  RH WIND       PRES   REMARKS
BEAUFORT       CLOUDY    46  36  68 NE9       30.34F
CEDAR ISLAND     N/A     41 N/A N/A VRB6      30.39S
JACKSONVILLE   NOT AVBL
PINEY ISLAND     N/A    N/A N/A N/A MISG      30.36F
WILMINGTON     CLOUDY    45  38  76 NE7       30.32F


$$

NCZ011>013-027>030-043-044-078>080-089-090>093-098-031800-
COASTAL PLAIN

CITY           SKY/WX    TMP DP  RH WIND       PRES   REMARKS
AHOSKIE        CLOUDY    36  25  63 CALM      30.38F
CLINTON        DRIZZLE   40  32  72 E6        30.34F
ELIZABETHTOWN  CLOUDY    42  31  65 NE3       30.32F
GOLDSBORO      CLOUDY    40  37  87 NE9       30.33F
GREENVILLE     PTSUNNY   37  28  70 E3        30.37F
HAVELOCK       CLOUDY    44  33  65 NE12      30.36F
KENANSVILLE    CLOUDY    40  32  72 NE3       30.35F
KINSTON        CLOUDY    39  30  70 E8        30.36F
NEW BERN       LGT RAIN  43  33  68 NE7       30.36F
RICHLANDS      CLOUDY    41  34  75 NE10      30.35F
ROCKY MOUNT    CLOUDY    38  23  55 VRB6      30.37F
WASHINGTON     PTSUNNY   38  29  70 NE5       30.37F
WHITEVILLE     CLOUDY    43  32  64 E7        30.31F

$$

AMZ130-135-150-152-154-156-158-170-250-252-270-ANZ085-086-088-633-658-670-031800-
MARINE OBSERVATIONS

STATION/POSITION TIME  TEMP    WIND        PRES    WAVE   SWELL
                       AIR SEA DIR/SP/G            HT/PER HT/PER
                 (UTC) (F)     (DEG/KT/KT) (MB)    (FT/S) (FT/S)
CHESAPEAKE LIGHT 1600   35      50/ 10/ 11 1030.1
64 E VA BEACH    1650   48 62   90/  6/  8 1028.3    4/ 6   3/ 6
DUCK             1600   36 35              1028.2
2 E DUCK         1611      35                N/A     4/ 6
10 NE DUCK       1622      37                N/A     4/ 6
OREGON INLET     1600   40 39              1028.9
HATTERAS CG      1600   42 42              1028.8
CAPE LOOKOUT     1700   44      20/ 13/ 15 1027.1
BEAUFORT LAB     1600   44 44              1027.2
27 SE WRIGHTSVLE NOT AVBL
5 SE WRIGHTSVLE  NOT AVBL
225 S CAPE HAT   1650   65 72  110/ 17/ 21 1026.7    7/ 8   3/16
41 SE CHARLESTON 1650   68 69  120/ 14/ 17 1023.3    6/ 6   3/ 7

$$


USA.gov is the U.S. government's official web portal to all federal, state and local government web resources and services.